Location: Austin
(30.3000°N, 97.7500°W)
Time: 05:54:47
(UTC-05:00)

CZ-2C R/B - Pass Details

Date: 16 June 2025
Orbit: 663 x 775 km, 98.4° (Epoch: 07 July)

Event Time Altitude Azimuth Distance (km) Brightness Sun altitude
Rises 04:42:20 0° 24° (NNE) 3,038 6.8 -19.5°
Reaches altitude 10° 04:44:44 10° 34° (NE) 2,134 6.0 -19.1°
Maximum altitude 04:48:57 34° 99° (E) 1,145 3.7 -18.5°
Drops below altitude 10° 04:53:17 10° 164° (SSE) 2,184 4.6 -17.8°
Enters shadow 04:53:47 - 166° (SSE) 2,368 4.8 -17.7°
